カタログに戻る

FENGYUN 1C DEB

運用中SSO
NORAD 29751·DEBRIS·🇨🇳 China

打ち上げ May 10, 1999 から Taiyuan Satellite Launch Center

Loading…

次のパス (今後24時間)

TLE

最新Source: Space-Track

元期: Sep 14, 2026, 00:20 UTC

1 29751U 99025AR  26257.01438530  .00000211  00000-0  10580-3 0  9996
2 29751  98.5174 281.6109 0089914  57.9159 332.9698 14.23822596 19893

AllMySatでFENGYUN 1C DEBをリアルタイム追跡

Download on the App Store